Regional Weather Roundup
Issued by NWS Upton, NY

Current Version | Previous Version | Text Only | Print | Product List | Glossary Off
Versions: 1 2 3 4 5 6 7 8 9 10 11 12 13 14 15 16 17 18 19 20 21 22 23 24 25 26 27
000 ASUS41 KOKX 251509 RWROKX REGIONAL WEATHER ROUNDUP NATIONAL WEATHER SERVICE NEW YORK NY 1100 AM EDT TUE APR 25 2017 NOTE: "FAIR" INDICATES FEW OR NO CLOUDS BELOW 12,000 FEET WITH NO SIGNIFICANT WEATHER AND/OR OBSTRUCTIONS TO VISIBILITY. NYZ071-072-176-178-NJZ106-104-251600- NEW YORK CITY METRO AREA CITY SKY/WX TMP DP RH WIND PRES REMARKS Central Park CLOUDY 51 50 96 NE10G24 30.12S Wall St Helipt LGT RAIN 53 50 89 NE22G28 30.08S FOG Bronx Bot Gard N/A 50 48 93 NE23 30.11S LaGuardia APRT LGT RAIN 54 50 86 NE21G29 30.10S Kennedy INTL LGT RAIN 55 53 93 NE20 30.09S FOG Breezy Point N/A 52 N/A N/A NE16G22 N/A Newark/Liberty LGT RAIN 53 50 89 NE13 30.09S Teterboro LGT RAIN 54 51 90 E14G29 30.08F FOG $$ NYZ177-179-078>081-251600- LONG ISLAND NEW YORK CITY SKY/WX TMP DP RH WIND PRES REMARKS Jones Beach N/A 54 N/A N/A NE24 N/A Matinecock PT N/A 50 N/A N/A E25 N/A Farmingdale LGT RAIN 53 52 96 NE13 30.10R FOG MacArthur/ISP LGT RAIN 53 53 100 E12 30.10R Shirley CLOUDY 52 51 97 VRB6 30.11S Mt Sinai Harb N/A N/A N/A N/A NE12 N/A Westhampton CLOUDY 52 50 93 E13 30.12S East Hampton LGT RAIN 49 48 96 NE14G23 30.12S Montauk N/A 50 49 96 NE15G25 30.14F $$ NYZ052-065-067-251600- HUDSON VALLEY CITY SKY/WX TMP DP RH WIND PRES REMARKS White Plains LGT RAIN 53 50 89 E15G23 30.10S FOG Larchmont Harb N/A 50 N/A N/A NE21 N/A Croton O-T Hud N/A 55 N/A N/A E3G12 N/A Newburgh CLOUDY 50 50 100 E9 30.15F Montgomery LGT RAIN 49 47 93 N13 30.13F FOG Poughkeepsie CLOUDY 50 48 93 N8 30.14F Albany LGT RAIN 47 41 80 N5 30.22S $$ NJZ001-105-106-008-010-013-015-019>022-104-251600- NEW JERSEY CITY SKY/WX TMP DP RH WIND PRES REMARKS Newark/Liberty LGT RAIN 53 50 89 NE13 30.09S Teterboro LGT RAIN 54 51 90 E14G29 30.08F FOG Caldwell LGT RAIN 53 52 96 E8 30.10F FOG Somerville CLOUDY 54 51 90 E12G20 30.05S FOG Linden DRIZZLE 53 50 90 E9G18 30.08F Sussex CLOUDY 50 48 93 NE12 30.11F FOG Andover N/A 52 49 89 VRB7 30.08F Trenton CLOUDY 54 52 93 E21G28 30.01F FOG Millville LGT RAIN 55 55 100 NE13G22 29.92F FOG Atlantic City RAIN 55 53 93 NE16G23 29.94F FOG Wrightstown CLOUDY 53 52 96 NE13 29.99F FOG Toms River FOG 52 51 97 E10G24 30.03S VSB 3/4 Belmar LGT RAIN 50 49 96 NE18G31 30.04S VSB 1/2 $$ PAZ047>061-062-071-251600- EASTERN PENNSYLVANIA CITY SKY/WX TMP DP RH WIND PRES REMARKS Philadelphia CLOUDY 55 52 89 NE17G26 29.98F Allentown CLOUDY 54 47 77 NE16 30.04F Scranton CLOUDY 52 46 80 E9 30.06F $$ CTZ002-004>006-009-010-012-RIZ004-006-007-MAZ004-011-015-251600- SOUTHERN NEW ENGLAND IN CT CITY SKY/WX TMP DP RH WIND PRES REMARKS Bradley INTL LGT RAIN 52 49 89 N12 30.21S Hartford CLOUDY 54 50 86 N8 30.19F Danbury CLOUDY 52 50 93 E13G18 30.15S Wtrbury/Oxford CLOUDY 52 45 76 E9G23 30.16S Bridgeport LGT RAIN 56 50 80 NE20G25 30.13S Meriden CLOUDY 55 49 80 VRB7G16 30.17F New Haven CLOUDY 57 50 77 NE15 30.14S Chester CLOUDY 55 50 82 NE10G21 30.15S Groton CLOUDY 57 51 80 NE20G29 30.15S Wilimantic CLOUDY 54 50 86 E15 30.21S IN RI CITY SKY/WX TMP DP RH WIND PRES REMARKS Providence CLOUDY 51 50 96 NE13 30.23F Block Island LGT RAIN 49 48 97 NE15G24 30.16F FOG Westerly CLOUDY 56 52 86 NE10G21 30.17F IN MA CITY SKY/WX TMP DP RH WIND PRES REMARKS Boston CLOUDY 48 43 82 NE20G28 30.29S Worcester CLOUDY 47 44 90 E16G25 30.24F Westfield CLOUDY 51 49 92 N8 30.23S Provincetown CLOUDY 48 43 82 E18 30.26F Nantucket CLOUDY 49 47 93 NE17G25 30.18F FOG $$ ANZ330-335-338-340-345-350-353-355-251600- COASTAL MARINE OBSERVATIONS STATION/POSITION TIME SKY/WX TEMP WIND PRES VSBY WAVE AIR SEA DIR/SP/G HT/PER (UTC) (F) (DEG/KT/KT) (MB) (MI) (FT/S) NY HARB ENTRANCE 1350 49 49 60/ 25/ 29 1017.2 7/ 6 20 S FIRE ISLAND 1450 48 47 60/ 21/ 23 1016.8 7/ 7 GREAT SOUTH BAY 1430 54 55 60/ 17/ 27 N/A 23 SSW MONTAUK P 1350 47 46 1019.3 6/ 5 15 E BARNEGAT LI 1430 50 N/A 8/ 6 HUDSON CANYON 1350 50 47 80/ 14/ 16 1015.8 6/ 7 KINGS POINT 1448 52 47 100/ 11/ 17 1018.9 EXECUTION ROCKS NOT AVBL CENTRAL LI SOUND NOT AVBL EASTERN LI SOUND NOT AVBL ROBBINS REEF 1448 52 50/ 17/ 21 1018.5 $$ >>>>>>>>>>>>>>>>>>>>>>>>>>>> KEY <<<<<<<<<<<<<<<<<<<<<<<<<<< > < > SKY/WX - Sky Condition/Present Weather < > TMP - Temperature in Fahrenheit < > DP - Dew Point in Fahrenheit < > RH - Relative Humidity in Percent < > WIND - Direction (from) and Speed in MPH < > PRES - Mean Sea Level Pressure (inches of Hg) < > WCI - Wind Chill Index < > VSB - VISIBILITY IN MILES < > HX - HEAT INDEX < > TC - TEMPERATURE IN CELSIUS < > VRB - VARIABLE WIND DIRECTION < > < >>>>>>>>>>>>>>>>>>>>>>>>>>>> KEY <<<<<<<<<<<<<<<<<<<<<<<<<<<

USA.gov is the U.S. government's official web portal to all federal, state and local government web resources and services.